パンスターズ彗星

C/2017 U7 ( PanSTARRS )

English version
Home page
Updated on April 17, 2020

---------------------------------------------------------------------

・ プロフィール

発見日 2017年10月29日
発見光度 20.1等
発見者 Pan-STARRS 1 telescope (Haleakala)

・ 写真集

・ 軌道要素

Epoch 2019 Aug. 25.0 TT = JDT 2458720.5
T 2019 Sept. 11.28193 TT                                Rudenko
q   6.4172660            (2000.0)            P               Q
z  -0.0001183      Peri.  326.03230     +0.53147963     -0.59460867
 +/-0.0000005      Node   276.23237     -0.57730917     -0.77545533
e   1.0007589      Incl.  142.63532     -0.61987380     +0.21239012
From 426 observations 2017 Aug. 18-2020 Mar. 17, mean residual 0".4.

・ 星図

・ 光度変化

        m1 = -12 + 5 logΔ + 30 log r

---------------------------------------------------------------------

軌道要素はM.P.E.C. 2020-G65に掲載されたものです。
星図はステラナビゲータ Ver.10 (アストロアーツ) で作成したものです。
光度グラフはComet for Windowsで作成したものです。

---------------------------------------------------------------------

Copyright(C) Seiichi Yoshida (comet@aerith.net). All rights reserved.